Regional Weather Roundup
Issued by NWS Green Bay, WI

Home | Current Version | Previous Version | Graphics & Text | Print | Product List | Glossary Off
Versions: 1 2 3 4 5 6 7 8 9 10 11 12 13 14 15 16 17 18 19 20 21 22 23 24 25 26 27 28 29 30 31 32 33 34 35 36 37 38 39 40 41 42 43 44 45 46 47 48 49 50

000
ASUS43 KGRB 161659
RWRGRB

NORTH-CENTRAL AND NORTHEAST WISCONSIN REGIONAL WEATHER ROUNDUP
NATIONAL WEATHER SERVICE GREEN BAY WI
1200 PM CDT TUE SEP 16 2014

WIZ005-009-010>012-018-019-161800-
NORTH CENTRAL WISCONSIN

CITY           SKY/WX    TMP DP  RH WIND       PRES   REMARKS
IRONWOOD       SUNNY     61  41  48 W20G25    30.03S
MANITOWISH WTR NOT AVBL
ARBOR VITAE    NOT AVBL
EAGLE RIVER    NOT AVBL
LAND O LAKES   NOT AVBL
RHINELANDER    SUNNY     60  39  45 W14G20    30.11F
PHILLIPS       NOT AVBL
ANTIGO         NOT AVBL
TOMAHAWK       NOT AVBL
MERRILL        NOT AVBL
$$

WIZ013-073-161800-
NORTHEAST WISCONSIN

CITY           SKY/WX    TMP DP  RH WIND       PRES   REMARKS
IRON MOUNTAIN  SUNNY     62  38  40 W13G22    30.05F
MARINETTE      SUNNY     61  39  44 W8        30.10S
$$

WIZ017-030-035>037-045-161800-
CENTRAL WISCONSIN

CITY           SKY/WX    TMP DP  RH WIND       PRES   REMARKS
MEDFORD        NOT AVBL
WAUSAU         SUNNY     60  41  49 W7        30.13F
MOSINEE        NOT AVBL
MARSHFIELD     SUNNY     62  43  49 W12       30.15F
WISC RAPIDS    SUNNY     61  39  44 W10       30.17F
STEVENS POINT  NOT AVBL
WAUPACA        NOT AVBL
SHAWANO        NOT AVBL
CLINTONVILLE   NOT AVBL
$$

WIZ038-039-048-051-161800-
FOX VALLEY

CITY           SKY/WX    TMP DP  RH WIND       PRES   REMARKS
NWS GREEN BAY  SUNNY     62  41  46 SW9       30.14F
APPLETON       SUNNY     59  37  44 W9        30.16F
OSHKOSH        SUNNY     59  38  45 W8        30.16F
FOND DU LAC    SUNNY     59  37  44 SW3       30.17F
$$

WIZ022-050-052-161800-
EAST CENTRAL WISCONSIN

CITY           SKY/WX    TMP DP  RH WIND       PRES   REMARKS
STURGEON BAY   SUNNY     59  37  44 W13       30.13S
MANITOWOC      NOT AVBL
SHEBOYGAN      SUNNY     60  40  47 SW9       30.17F
$$

LMZ563-521-522-541>543-161800-
LAKESHORE

STATION/POSITION TIME  TEMP    WIND        PRES    VSBY  WAVE
                       AIR SEA DIR/SP/G                  HT/PER
                 (UTC) (F)     (DEG/KT/KT) (MB)    (MI)  (FT/S)
SHEBOYGAN LKSHOR 1600   56 49  280/  6/  8 1022.3F
KEWAUNEE LKSHORE 1600   57     280/  3/  7 1020.1F
NORTHPORT PIER   1600   60     260/  6/ 11 1019.3F
N MID LAKE BUOY  1600   53 59  250/ 12/ 14 1019.8F         1/ 3
S GREEN BAY BUOY 1600   58     VRB 10/ 14  1021.0F
CHAMBERS ISLAND  1600   58     200/  9/ 11 1019.6F
MENOMINEE LKSHOR 1600   58     240/ 10/ 13 1020.5F
$$



USA.gov is the U.S. government's official web portal to all federal, state and local government web resources and services.